STARLINK-32076, 60350

Orbit data source: Space-Track

STARLINK-32076, 60350 is a payload satellite owned by SpaceX/Seattle (US) in LEO that was launched on Fri, 02 Aug 2024 UTC via an FALCON 9 launch vehicle from the Air Force Eastern Test Range (AFETR). Payload-class satellites include a variety of spacecraft equipped with specific instruments for various scientific and technological missions. These include communications satellites like Starlink; space stations such as the ISS; scientific satellites like the Hubble; Earth observation satellites from companies like Planet Labs, Umbra, and HawkEye 360; GPS; miniature CubeSats for education and research; and military/defense satellites.

Loading next visibility...
Identifier
60350, 2024-136X
Orbit
LEO
Last TLE update
20 hours ago
Origin
Manufacturer
SpaceX/Seattle
Mission
Operational Commercial Communications
Bus & Motor
STARLINK V2M, Unknown motor
Mass
730 kg wet, ~700 kg dry
Launch date (UTC)
2024-08-02 (11 months ago)
Launch vehicle
FALCON 9
Launch site
Air Force Eastern Test Range (AFETR)
Object type
Payload
Rocket body
Debris
Shape & HBR
Box + 2 Pan, 29 m
Radar Cross Section
33.884 m², Large (>1 m²)

Expand to show TLE details & history

TLE from 20 hours ago
0 STARLINK-32076
1 60350U 24136X   25186.11396702 -.00000430  00000-0 -23788-5 0  9993
2 60350  53.1594 145.3401 0001203  89.3692 270.7446 15.30193623 51766
Epoch: 2025-07-05T02:44Z
TLE epoch observation values (Epoch: 2025-07-05T02:44:06.75Z)
Latitude
-0.00007°
Longitude
-179.04474°
Altitude
476.123 km
Speed
7.629 km/s
True Right ascension
09h 41m 21s
True Declination
0° 00' 00"
Sunlit
Object was in daylight at epoch
Visualization orbit readout
Latitude
-39.96425°
Longitude
138.41735°
Altitude
489.065 km
Speed
7.62 km/s
Apparent Right ascension
03h 04m 49s
Apparent Declination
-59° 08' 15"
Sunlit
Object is in daylight
Visualization observer readout
Local Sidereal Time
10:49:10
Azimuth
221.892° SW
Elevation
-46.372°
Doppler factor
1
Orbital elements
Apogee altitude
476.315 km
Perigee altitude
474.666 km
Semi-major axis
6,853.628 km
Eccentricity
0.00012
Inclination
53.1594°
RAAN
145.3401°
Arg. of periapsis
89.3692°
True anomaly
Unknown
Mean anomaly
270.7446°
Eccentric anomaly
Unknown
Mean motion
3.82527 °/min
Orbital period
94.11 mins
BSTAR
-0.0000023788
Loading maneuver chart data...
Loading SW <> Apogee altitude chart data...
Loading historical data...
Loading historical data...
Loading historical data...
Loading historical data...
Loading historical data...
Loading historical data...
Loading historical data...

STARLINK-32076 Visibility forecast

Observer location: undefined°, undefined°

Span
Click to sort rows by Start time (UTC) header in descending order
Start Az.
Max El. time (UTC)
Max El. Az.
Max El.
End time (UTC)
End Az.
6 mins2025-07-05 23:15:54.929Z195.932° SSW2025-07-05 23:18:54.929Z138.092° SSE28.159°2025-07-05 23:21:54.929Z71.232° E
5 mins2025-07-06 00:54:54.929Z276.57° WNW2025-07-06 00:56:54.929Z327.396° NNW27.913°2025-07-06 00:59:54.929Z31.455° NE
5 mins2025-07-06 05:51:54.929Z339.28° N2025-07-06 05:53:54.929Z31.779° NE28.043°2025-07-06 05:56:54.929Z94.072° ESE
5 mins2025-07-06 07:29:54.929Z277.424° WNW2025-07-06 07:31:54.929Z222.779° SW28.002°2025-07-06 07:34:54.929Z164.486° S
4 mins2025-07-06 22:47:54.929Z174.082° S2025-07-06 22:49:54.929Z122.194° SE24.687°2025-07-06 22:51:54.929Z79.979° E
|